Lafayette, IN

5:58 PM EST on November 24, 2017 (GMT -0500)
Purdue Univ

Weather History for KLAF - October, 2012

Change the Weather History Date:

Wednesday, October 3, 2012

  Actual Average Record
Temperature  
Mean Temperature 62 °F 59 °F  
Max Temperature 68 °F 70 °F 89 °F (1983)
Min Temperature 56 °F 47 °F 29 °F (1981)
Degree Days  
Heating Degree Days 3 7  
Month to date heating degree days 24 21  
Since 1 July heating degree days 165 106  
Cooling Degree Days 0 1  
Month to date cooling degree days 0 4  
Year to date cooling degree days 1179 969  
Growing Degree Days 10 (Base 50)    
Moisture  
Dew Point 55 °F    
Average Humidity 82    
Maximum Humidity 100    
Minimum Humidity 63    
Precipitation  
Precipitation 0.02 in 0.11 in 1.68 in (2014)
Month to date precipitation 0.27 0.31  
Year to date precipitation 21.61 28.52  
Sea Level Pressure  
Sea Level Pressure 29.95 in    
Wind  
Wind Speed 5 mph (SSW)    
Max Wind Speed 15 mph    
Max Gust Speed 21 mph    
Visibility 8 miles    
Events Rain    
T = Trace of Precipitation, MM = Missing Value Source: NWS Daily Summary

Daily Weather History Graph

Daily Weather History Graph

Search for Another Location

Airport or City:

Trip Planner

Search our weather history database for the weather conditions in past years. The results will help you decide how hot, cold, wet, or windy it might be!

Date:

Astronomy

Oct. 03, 2012 Rise Set
Actual Time 7:46 AM EDT 7:25 PM EDT
Civil Twilight 7:19 AM EDT 7:53 PM EDT
Nautical Twilight 6:47 AM EDT 8:24 PM EDT
Astronomical Twilight 6:16 AM EDT 8:56 PM EDT
Moon 9:17 PM EDT (10/3) 11:10 AM EDT (10/3)
Length of Visible Light 12h 33m
Length of Day
11h 39m
Waning Gibbous, 89% of the Moon is Illuminated
Oct 3
Waning Gibbous
Oct 8
Last Quarter
Oct 15
New
Oct 21
First Quarter
Oct 29
Full

Hourly Weather History & Observations

Time (EDT) Temp. Dew Point Humidity Pressure Visibility Wind Dir Wind Speed Gust Speed Precip Events Conditions
12:13 AM 59.0 °F 57.2 °F 94% 29.87 in 2.5 mi East 5.8 mph - 0.01 in Rain Light Rain
12:22 AM 59.0 °F 57.2 °F 94% 29.87 in 1.5 mi ESE 3.5 mph - 0.03 in Rain Rain
12:50 AM 57.2 °F 57.2 °F 100% 29.87 in 3.0 mi Calm Calm - 0.05 in   Overcast
12:51 AM 57.9 °F 57.9 °F 100% 29.88 in 3.0 mi Calm Calm - 0.05 in   Overcast
1:00 AM 59.0 °F 57.2 °F 94% 29.88 in 4.0 mi South 4.6 mph - N/A   Overcast
1:54 AM 57.9 °F 57.0 °F 97% 29.88 in 9.0 mi South 4.6 mph - N/A   Overcast
2:02 AM 57.2 °F 55.4 °F 94% 29.88 in 8.0 mi SSW 3.5 mph - N/A   Overcast
2:10 AM 57.2 °F 55.4 °F 94% 29.88 in 8.0 mi SSW 3.5 mph - N/A   Overcast
2:33 AM 57.2 °F 55.4 °F 94% 29.89 in 8.0 mi South 3.5 mph - N/A   Overcast
2:45 AM 57.2 °F 55.4 °F 94% 29.89 in 8.0 mi South 4.6 mph - N/A   Overcast
2:54 AM 57.0 °F 55.9 °F 96% 29.89 in 8.0 mi South 5.8 mph - N/A   Overcast
3:13 AM 57.2 °F 55.4 °F 94% 29.89 in 8.0 mi South 4.6 mph - N/A   Overcast
3:20 AM 57.2 °F 55.4 °F 94% 29.89 in 8.0 mi South 6.9 mph - N/A   Overcast
3:43 AM 57.2 °F 55.4 °F 94% 29.90 in 8.0 mi South 4.6 mph - N/A   Overcast
3:54 AM 57.0 °F 55.0 °F 93% 29.90 in 9.0 mi South 3.5 mph - N/A   Overcast
4:04 AM 57.2 °F 55.4 °F 94% 29.90 in 9.0 mi South 3.5 mph - N/A   Overcast
4:54 AM 55.9 °F 54.0 °F 93% 29.91 in 9.0 mi South 3.5 mph - N/A   Overcast
5:41 AM 55.4 °F 53.6 °F 94% 29.92 in 9.0 mi South 4.6 mph - N/A   Overcast
5:54 AM 55.9 °F 54.0 °F 93% 29.92 in 8.0 mi South 3.5 mph - N/A   Overcast
6:08 AM 55.4 °F 53.6 °F 94% 29.92 in 8.0 mi South 4.6 mph - N/A   Overcast
6:54 AM 55.9 °F 54.0 °F 93% 29.94 in 10.0 mi Variable 5.8 mph - N/A   Overcast
7:35 AM 55.4 °F 53.6 °F 94% 29.95 in 8.0 mi South 4.6 mph - N/A   Overcast
7:54 AM 55.9 °F 54.0 °F 93% 29.95 in 4.0 mi South 6.9 mph - N/A   Overcast
8:54 AM 55.9 °F 55.0 °F 97% 29.97 in 3.0 mi South 5.8 mph - 0.01 in Rain Light Rain
9:54 AM 55.9 °F 55.0 °F 97% 29.98 in 3.0 mi South 6.9 mph - 0.01 in   Overcast
10:54 AM 57.0 °F 55.9 °F 96% 29.99 in 8.0 mi SSW 8.1 mph - N/A   Overcast
11:54 AM 57.0 °F 55.9 °F 96% 30.00 in 5.0 mi SSW 8.1 mph - N/A   Overcast
12:35 PM 57.2 °F 55.4 °F 94% 30.00 in 2.0 mi SSW 8.1 mph 17.3 mph 0.00 in Rain Light Rain
12:54 PM 57.0 °F 55.9 °F 96% 30.00 in 3.0 mi SW 6.9 mph - 0.00 in   Overcast
1:45 PM 59.0 °F 55.4 °F 88% 30.00 in 10.0 mi SW 12.7 mph 20.7 mph N/A   Overcast
1:54 PM 59.0 °F 55.9 °F 90% 30.00 in 10.0 mi SW 12.7 mph 19.6 mph N/A   Overcast
2:01 PM 59.0 °F 55.4 °F 88% 30.00 in 10.0 mi WSW 11.5 mph 19.6 mph N/A   Overcast
2:23 PM 60.8 °F 55.4 °F 82% 30.00 in 10.0 mi SW 9.2 mph - N/A   Overcast
2:47 PM 62.6 °F 55.4 °F 77% 29.99 in 10.0 mi WSW 10.4 mph - N/A   Overcast
2:54 PM 62.1 °F 55.9 °F 80% 29.99 in 10.0 mi SW 5.8 mph - N/A   Overcast
4:54 PM 66.0 °F 53.1 °F 63% 29.99 in 10.0 mi SSW 4.6 mph - N/A   Overcast
5:54 PM 66.0 °F 53.1 °F 63% 30.00 in 10.0 mi SSW 6.9 mph - N/A   Overcast
6:54 PM 64.9 °F 53.1 °F 65% 30.01 in 10.0 mi South 4.6 mph - N/A   Mostly Cloudy
7:54 PM 61.0 °F 55.0 °F 81% 30.01 in 10.0 mi Calm Calm - N/A   Overcast
8:54 PM 60.1 °F 55.9 °F 86% 30.03 in 10.0 mi Calm Calm - N/A   Overcast
9:54 PM 61.0 °F 51.1 °F 70% 30.04 in 10.0 mi Calm Calm - N/A   Clear
10:54 PM 60.1 °F 51.1 °F 72% 30.05 in 10.0 mi SSW 4.6 mph - N/A   Clear
11:54 PM 59.0 °F 52.0 °F 78% 30.06 in 10.0 mi Calm Calm - N/A   Partly Cloudy